Location: Woodstock
(35.2731°N, 89.9823°W)
Time: 20:59:43
(UTC+00:00)

Transit 2A - Pass Details

Date: 17 November 2024
Orbit: 592 x 956 km, 66.7° (Epoch: 03 December)

Event Time Altitude Azimuth Distance (km) Brightness Sun altitude
Exits shadow 09:49:49 15° 10° (N) 2,346 8.5 -34.1°
Drops below altitude 10° 09:50:47 10° 14° (NNE) 2,664 8.9 -33.9°
Sets 09:53:27 0° 21° (NNE) 3,585 9.7 -33.4°
